This is the latest recevied weather packets stored in our database for station/object PA1CG-7. If no packets are shown the sender has not sent any weather packets the latest 1 day(s).
| Time | Temp. | Humidity | Pressure | Rain* | Wind** | Luminosity | Snow |
|---|---|---|---|---|---|---|---|
| 1778035335 | 10.56° C | 77% | 1009.4 hPa | 0 mm | 3.58 m/s, 293° | - | - |
| 1778034735 | 10.56° C | 78% | 1009.3 hPa | 0 mm | 2.68 m/s, 315° | - | - |
| 1778034135 | 10.56° C | 79% | 1009.4 hPa | 0 mm | 2.24 m/s, 315° | - | - |
| 1778033537 | 10.56° C | 79% | 1009.4 hPa | 0 mm | 3.13 m/s, 315° | - | - |
| 1778032937 | 10° C | 80% | 1009.5 hPa | 0 mm | 1.79 m/s, 338° | - | - |
| 1778032338 | 10° C | 79% | 1009.5 hPa | 0 mm | 1.79 m/s, 293° | - | - |
| 1778031738 | 10° C | 78% | 1009.6 hPa | 0 mm | 3.13 m/s, 315° | - | - |
| 1778031137 | 10.56° C | 78% | 1009.6 hPa | 0 mm | 2.68 m/s, 315° | - | - |
| 1778030537 | 10.56° C | 78% | 1009.5 hPa | 0 mm | 1.34 m/s, 315° | - | - |
| 1778029938 | 10.56° C | 79% | 1009.6 hPa | 0 mm | 3.13 m/s, 338° | - | - |
| 1778029337 | 10.56° C | 79% | 1009.7 hPa | 0 mm | 4.02 m/s, 315° | - | - |
| 1778028737 | 10° C | 78% | 1009.6 hPa | 0 mm | 2.68 m/s, 315° | - | - |
| 1778028137 | 10° C | 78% | 1009.7 hPa | 0 mm | 2.24 m/s, 315° | - | - |
| 1778027537 | 10° C | 78% | 1009.9 hPa | 0 mm | 1.79 m/s, 315° | - | - |
| 1778026937 | 10° C | 78% | 1009.9 hPa | 0 mm | 1.79 m/s, 315° | - | - |
| 1778026337 | 10° C | 78% | 1010 hPa | 0 mm | 2.24 m/s, 315° | - | - |
| 1778025737 | 10° C | 78% | 1010.1 hPa | 0 mm | 2.24 m/s, 315° | - | - |
| 1778025137 | 10° C | 77% | 1010.3 hPa | 0 mm | 2.24 m/s, 315° | - | - |
| 1778024537 | 10° C | 77% | 1010.2 hPa | 0 mm | 2.68 m/s, 338° | - | - |
| 1778023937 | 10° C | 76% | 1010.3 hPa | 0 mm | 3.58 m/s, 315° | - | - |
| 1778023337 | 10° C | 76% | 1010.4 hPa | 0 mm | 3.13 m/s, 315° | - | - |
| 1778022737 | 10° C | 76% | 1010.4 hPa | 0 mm | 1.79 m/s, 315° | - | - |
| 1778022137 | 10° C | 76% | 1010.5 hPa | 0 mm | 1.34 m/s, 293° | - | - |
| 1778021537 | 10° C | 75% | 1010.6 hPa | 0 mm | 2.68 m/s, 0° | - | - |
| 1778020937 | 10° C | 75% | 1010.5 hPa | 0 mm | 2.68 m/s, 315° | - | - |
* Rain latest hour (hover to see other rain measurements)
** Current wind speed in m/s (hover to see current wind gust speed)